Home > Weather > Oran > Past weeks

Flag for Algeria Weather for the Past 2 Weeks in Oran, Algeria

Now
63 °F

Partly cloudy.


Feels Like: 63 °F
Forecast: 58 / 68 °F
Wind: 9 mph from Northeast

Location: Oran / Es Senia

Current Time: Apr 29, 2016 at 9:40:52 PM

Latest Report: Apr 29, 2016 at 9:00 PM


Visibility: 5 mi

Pressure: 29.98 "Hg

Humidity: 83%

Dew Point: 57 °F

Location of OranLocation

Historic Weather in Oran — Graph

°F

Oran Temperature Yesterday

Maximum temperature yesterday: 79 °F (at 2:00 PM)
Minimum temperature yesterday: 57 °F (at 4:30 AM)
Average temperature yesterday: 68 °F

High & Low Weather Summary for the Past Weeks

 TemperatureHumidityPressure
High79 °F (Apr 28, 2:00 PM)100% (Apr 15, 3:00 AM)30.21 "Hg (Apr 15, 3:00 AM)
Low50 °F (Apr 15, 6:00 AM)29% (Apr 23, 3:00 PM)29.80 "Hg (Apr 27, 4:00 PM)
Average65 °F67%29.96 "Hg
* Reported Apr 14 8:00 PM — Apr 29 8:00 PM, Oran, Weather by CustomWeather, © 2016

Note: Actual official high and low records may vary slightly from our data, if they occured in-between our weather recording intervals... More about our weather records

Advertising

Oran Weather History for the Previous 24 Hours

Scroll right to see more
 ConditionsComfort  
Time TempWeatherWind HumidityBarometerVisibility
8:00 PM
Fri, Apr 29
64 °FPartly cloudy.9 mph83%29.95 "Hg5 mi
7:30 PM64 °FBroken clouds.12 mph78%29.95 "Hg5 mi
7:00 PM66 °FBroken clouds.9 mph73%29.95 "Hg5 mi
6:30 PM68 °FScattered clouds.15 mph73%29.92 "Hg5 mi
6:00 PM68 °FScattered clouds.14 mph73%29.92 "Hg5 mi
5:30 PM68 °FPartly sunny.13 mph73%29.92 "Hg5 mi
5:00 PM70 °FPartly sunny.14 mph69%29.92 "Hg5 mi
4:30 PM72 °FPartly sunny.15 mph65%29.92 "HgN/A
4:00 PM70 °FPartly sunny.14 mph69%29.92 "HgN/A
3:30 PM72 °FPartly sunny.13 mph65%29.92 "HgN/A
3:00 PM72 °FPartly sunny.12 mph61%29.92 "HgN/A
2:30 PM73 °FPartly sunny.13 mph57%29.92 "HgN/A
2:00 PM73 °FPartly sunny.10 mph57%29.92 "HgN/A
1:30 PM73 °FPartly sunny.10 mph53%29.92 "HgN/A
1:00 PM72 °FPartly sunny.12 mph65%29.95 "HgN/A
12:30 PM72 °FPartly sunny.13 mph69%29.95 "Hg6 mi
12:00 PM72 °FPartly sunny.9 mph69%29.95 "Hg6 mi
11:30 AM72 °FScattered clouds.6 mph65%29.95 "Hg6 mi
11:00 AM70 °FScattered clouds.5 mph69%29.98 "Hg6 mi
10:30 AM68 °FBroken clouds.7 mph73%29.98 "Hg6 mi
10:00 AM68 °FBroken clouds.6 mph73%29.95 "Hg6 mi
9:00 AM64 °FBroken clouds.6 mph83%29.95 "Hg5 mi
8:30 AM64 °FBroken clouds.3 mph88%29.95 "Hg5 mi
8:00 AM64 °FPartly sunny.7 mph88%29.95 "Hg5 mi
7:30 AM63 °FPartly sunny.No wind94%29.95 "Hg5 mi
7:00 AM63 °FPartly sunny.No wind94%29.95 "Hg5 mi
5:30 AM61 °FClear.2 mph94%29.92 "Hg10 mi
5:00 AM61 °FClear.No wind94%29.92 "Hg10 mi
4:30 AM61 °FClear.No wind94%29.92 "Hg10 mi
3:30 AM59 °FClear.No wind94%29.92 "Hg10 mi
2:30 AM61 °FClear.2 mph94%29.95 "Hg10 mi
2:00 AM63 °FClear.5 mph88%29.95 "Hg10 mi
1:30 AM63 °FClear.6 mph88%29.95 "Hg10 mi
1:00 AM63 °FPassing clouds.2 mph88%29.95 "HgN/A
12:30 AM63 °FClear.2 mph88%29.98 "Hg10 mi
12:00 AM63 °FPassing clouds.2 mph88%29.98 "HgN/A
11:30 PM
Thu, Apr 28
63 °FPassing clouds.9 mph88%29.95 "HgN/A
11:00 PM63 °FPassing clouds.7 mph88%29.95 "HgN/A
10:30 PM63 °FClear.7 mph88%29.95 "Hg10 mi
10:00 PM64 °FPassing clouds.7 mph88%29.95 "HgN/A
9:30 PM64 °FPassing clouds.6 mph83%29.92 "HgN/A
9:00 PM68 °FPassing clouds.10 mph73%29.92 "HgN/A
Weather by CustomWeather, © 2016

See weather overviewHow to use our weather pages